Weather in Assen

Netherlands     52°59′37″N   6°33′29″E
temp.,
°C
wind,
m/s
gust,
m/s
humid.,
%
clouds,
%
prec.,
mm/h
press.,
hPa
HPBL,
m
11 may, tue
tue1123:00+13ne2285100 0.0 100923
02:00+11nne2390100 0.1 100958
05:00+11ne2293100 0.3 100944
08:00+12nne2393100 0.6 1009113
11:00+13e3591100 2.1 1009229
14:00+13ene3594100 3.7 1009323
17:00+12nne3697100 2.6 1009317
20:00+11n4997100 4.8 1009382
12 may, wed
wed1223:00+10n4798100 2.8 1009293
02:00+10n3498100 5.6 1010182
05:00+10wnw1196100 0.1 101022
08:00+11w3792100 0.1 1011352
11:00+13w457441 0.0 1011888
14:00+15wnw4464100 0.1 10111474
17:00+15wnw4465100 0.1 10121090
20:00+12nnw3581100 0.1 1012322
13 may, thu
thu1323:00+8n2390100 0.0 101271
02:00+7nne2290100 0.0 101117
05:00+7nne2290100 0.0 101121
08:00+10ne2383100 0.0 1010218
11:00+12ne2381100 0.1 1010660
14:00+11nne2491100 1.0 1009372
17:00+10n2695100 1.6 1008374
20:00+9nnw2698100 2.6 1008372
14 may, fri
fri1423:00+9nnw2598100 0.9 1008283
02:00+8wnw2498100 2.8 1008187
05:00+8wnw3596100 0.5 1007279
08:00+8wnw3794100 0.7 1007402
11:00+8w3695100 0.2 1008416
14:00+9wnw369199 0.8 1009508
17:00+11nw4578100 0.1 1009993
20:00+10wnw358593 0.1 1009506
15 may, sat
sat1523:00+8w369158 0.0 1010231
02:00+6w379799 0.0 1010164
05:00+8w5782100 0.0 1010601
08:00+9w5777100 0.0 1010849
11:00+10w5772100 0.0 10101030
14:00+13w6866100 0.0 10101330
17:00+13w566515 0.0 10101288
20:00+12wnw34790 0.0 1010232